Погода в Покрово-Васильевке

Россия / Тамбовская область     53°24′06″N   41°01′46″E
темп.,
°C
ветер,
м/с
пор.,
м/с
влажн.,
%
обл.,
%
осадки,
мм/ч
давл.,
гПа
погр.,
м
24 сентября, пт
пт2400:00+7ююз34856 0.0 101153
03:00+6ююз34905 0.0 101159
06:00+5ю34936 0.0 101079
09:00+9ю61077100 0.0 1010588
12:00+12ю795967 0.1 10091438
15:00+12ю68649 0.3 10091092
18:00+11ююв3766100 0.0 1008255
21:00+8ююв367869 0.1 1008117
25 сентября, сб
сб2500:00+10юв3666100 0.0 1008130
03:00+9юв3667100 0.0 1008152
06:00+9юв2574100 0.0 1008122
09:00+11ююз236788 0.0 1009322
12:00+14юз345070 0.0 10091254
15:00+15ююз454784 0.0 10091732
18:00+12зюз4664100 0.0 1010303
21:00+10юз3670100 0.0 1010298
26 сентября, вс
вс2600:00+10ююз3875100 0.0 1009294
03:00+9ююз4883100 0.2 1008274
06:00+9ююз4885100 0.3 1007379
09:00+9ююв4795100 3.3 1005412
12:00+9ююз2395100 0.8 1004338
15:00+10сз2495100 2.8 1005292
18:00+9ссз5893100 2.3 1006542
21:00+9ссв5894100 3.3 1007475
27 сентября, пн
пн2700:00+9ссв51093100 0.3 1009552
03:00+9с6129487 0.6 1011489
06:00+9ссв61289100 0.0 1014553
09:00+9с697996 0.0 1016519
12:00+11с6772100 0.0 1018995
15:00+9с5889100 0.3 1019648
18:00+9с4892100 0.1 1021501
21:00+8ссв4892100 0.1 1022479
28 сентября, вт
вт2800:00+8ссв4891100 0.0 1024499
03:00+7ссв4792100 0.0 1025498
06:00+7ссв4793100 0.0 1026452
09:00+8св4792100 0.0 1027443
12:00+8св4590100 0.2 1029376
15:00+9св448390 0.2 1030541
18:00+8ссв3588100 0.0 1031236
21:00+8ссв3688100 0.0 1031246